When you browse on this site, cookies collect data to enhance your experience and personalize the content and advertising you see.
Visit our Privacy Policy to learn more. By continuing to use the site, you agree to this use of cookies and data.

Tiempo cada hora Penco

Hoy, 13 Julio, Lunes

Tiempo Temperatura Precipitaciones Viento Presión Humedad
00:00 +11°C° 0 mm 1 mps 759 mmHg 98%
01:00 +11°C° 0 mm 1 mps 759 mmHg 97%
02:00 +10°C° 0 mm 1 mps 759 mmHg 98%
03:00 +8°C° 0 mm 2 mps 759 mmHg 98%
04:00 +7°C° 0 mm 2 mps 759 mmHg 98%
05:00 +7°C° 0 mm 2 mps 760 mmHg 97%
06:00 +7°C° 0 mm 2 mps 760 mmHg 97%
07:00 +6°C° 0 mm 2 mps 760 mmHg 97%
08:00 +8°C° 0 mm 2 mps 760 mmHg 93%
09:00 +9°C° 0 mm 2 mps 761 mmHg 89%
10:00 +12°C° 0 mm 2 mps 761 mmHg 85%
11:00 +13°C° 0 mm 2 mps 760 mmHg 81%
12:00 +14°C° 0 mm 2 mps 760 mmHg 78%
13:00 +15°C° 0 mm 2 mps 760 mmHg 74%
14:00 +15°C° 0 mm 2 mps 760 mmHg 76%
15:00 +14°C° 0 mm 2 mps 760 mmHg 79%
16:00 +14°C° 0 mm 2 mps 760 mmHg 81%
17:00 +12°C° 0 mm 2 mps 760 mmHg 86%
18:00 +10°C° 0 mm 2 mps 759 mmHg 90%
19:00 +8°C° 0 mm 2 mps 759 mmHg 95%
20:00 +8°C° 0 mm 2 mps 759 mmHg 95%
21:00 +8°C° 0 mm 2 mps 759 mmHg 95%
22:00 +7°C° 0 mm 2 mps 759 mmHg 95%
23:00 +7°C° 0 mm 2 mps 759 mmHg 95%

Mañana, 14 Julio, Martes

Tiempo Temperatura Precipitaciones Viento Presión Humedad
00:00 +7°C° 0 mm 2 mps 759 mmHg 95%
01:00 +7°C° 0 mm 2 mps 758 mmHg 95%
02:00 +7°C° 0 mm 2 mps 758 mmHg 95%
03:00 +7°C° 0 mm 2 mps 758 mmHg 95%
04:00 +6°C° 0 mm 2 mps 757 mmHg 96%
05:00 +6°C° 0 mm 2 mps 757 mmHg 96%
06:00 +6°C° 0 mm 2 mps 757 mmHg 96%
07:00 +6°C° 0 mm 2 mps 757 mmHg 96%
08:00 +8°C° 0 mm 2 mps 757 mmHg 87%
09:00 +10°C° 0 mm 2 mps 757 mmHg 79%
10:00 +13°C° 0 mm 2 mps 757 mmHg 71%
11:00 +15°C° 0 mm 2 mps 756 mmHg 67%
12:00 +16°C° 0 mm 2 mps 756 mmHg 62%
13:00 +18°C° 0 mm 2 mps 755 mmHg 57%
14:00 +17°C° 0 mm 2 mps 755 mmHg 62%
15:00 +16°C° 0 mm 2 mps 755 mmHg 68%
16:00 +15°C° 0 mm 2 mps 755 mmHg 74%
17:00 +14°C° 0 mm 2 mps 755 mmHg 79%
18:00 +12°C° 0 mm 2 mps 755 mmHg 85%
19:00 +9°C° 0 mm 2 mps 755 mmHg 90%
20:00 +9°C° 0 mm 2 mps 755 mmHg 90%
21:00 +8°C° 0 mm 2 mps 755 mmHg 90%
22:00 +9°C° 0 mm 1 mps 755 mmHg 90%
23:00 +9°C° 0 mm 1 mps 755 mmHg 91%

Pasado mañana, 15 Julio, Miércoles

Tiempo Temperatura Precipitaciones Viento Presión Humedad
00:00 +9°C° 0 mm 1 mps 755 mmHg 92%
01:00 +8°C° 0 mm 1 mps 754 mmHg 93%
02:00 +8°C° 0 mm 1 mps 754 mmHg 93%
03:00 +8°C° 0 mm 1 mps 754 mmHg 94%
04:00 +8°C° 0 mm 1 mps 754 mmHg 94%
05:00 +8°C° 0 mm 1 mps 754 mmHg 95%
06:00 +8°C° 0 mm 1 mps 754 mmHg 95%
07:00 +7°C° 0 mm 1 mps 754 mmHg 95%
08:00 +9°C° 0 mm 1 mps 754 mmHg 87%
09:00 +11°C° 0 mm 1 mps 755 mmHg 80%
10:00 +14°C° 0 mm 1 mps 755 mmHg 72%
11:00 +14°C° 0 mm 1 mps 755 mmHg 71%
12:00 +15°C° 0 mm 1 mps 755 mmHg 69%
13:00 +15°C° 0 mm 2 mps 754 mmHg 68%
14:00 +15°C° 0 mm 2 mps 754 mmHg 72%
15:00 +14°C° 0 mm 2 mps 754 mmHg 76%
16:00 +14°C° 0 mm 2 mps 754 mmHg 80%
17:00 +12°C° 0 mm 2 mps 755 mmHg 85%
18:00 +10°C° 0 mm 2 mps 755 mmHg 90%
19:00 +9°C° 0 mm 2 mps 755 mmHg 96%
20:00 +10°C° 0 mm 1 mps 755 mmHg 96%
21:00 +10°C° 0 mm 1 mps 755 mmHg 97%
22:00 +10°C° 0 mm 1 mps 755 mmHg 97%
23:00 +9°C° 0 mm 2 mps 755 mmHg 97%

16 Julio, Jueves

Tiempo Temperatura Precipitaciones Viento Presión Humedad
00:00 +9°C° 0 mm 2 mps 755 mmHg 98%
01:00 +9°C° 0 mm 2 mps 754 mmHg 98%
02:00 +9°C° 0 mm 2 mps 754 mmHg 98%
03:00 +9°C° 0 mm 3 mps 754 mmHg 98%
04:00 +9°C° 0 mm 3 mps 753 mmHg 97%
05:00 +9°C° 0 mm 3 mps 753 mmHg 97%
06:00 +9°C° 0 mm 3 mps 753 mmHg 98%
07:00 +8°C° 0 mm 4 mps 753 mmHg 98%
08:00 +10°C° 0 mm 4 mps 753 mmHg 93%
09:00 +10°C° 0 mm 5 mps 753 mmHg 89%
10:00 +12°C° 0 mm 5 mps 753 mmHg 84%
11:00 +13°C° 0 mm 5 mps 752 mmHg 80%
12:00 +14°C° 0 mm 6 mps 752 mmHg 76%
13:00 +14°C° 0 mm 6 mps 752 mmHg 72%
14:00 +14°C° 0 mm 6 mps 752 mmHg 75%
15:00 +13°C° 0 mm 6 mps 752 mmHg 78%
16:00 +11°C° 0 mm 6 mps 752 mmHg 81%
17:00 +11°C° 0.2 mm 7 mps 752 mmHg 83%
18:00 +11°C° 0.2 mm 7 mps 752 mmHg 85%
19:00 +10°C° 0.2 mm 7 mps 752 mmHg 87%
20:00 +11°C° 1 mm 7 mps 752 mmHg 89%
21:00 +11°C° 1 mm 7 mps 752 mmHg 91%
22:00 +11°C° 1 mm 7 mps 752 mmHg 93%
23:00 +11°C° 2.3 mm 7 mps 752 mmHg 94%

17 Julio, Viernes

Tiempo Temperatura Precipitaciones Viento Presión Humedad
00:00 +11°C° 2.3 mm 6 mps 752 mmHg 95%
01:00 +12°C° 2.3 mm 5 mps 751 mmHg 96%
02:00 +11°C° 0.8 mm 4 mps 751 mmHg 96%
03:00 +11°C° 0.8 mm 3 mps 751 mmHg 96%
04:00 +10°C° 0.8 mm 2 mps 751 mmHg 95%
05:00 +10°C° 0.1 mm 3 mps 751 mmHg 95%
06:00 +10°C° 0.1 mm 3 mps 751 mmHg 96%
07:00 +10°C° 0.1 mm 4 mps 751 mmHg 96%
08:00 +11°C° 0.1 mm 4 mps 752 mmHg 92%
09:00 +12°C° 0.1 mm 5 mps 752 mmHg 87%
10:00 +12°C° 0.1 mm 5 mps 753 mmHg 83%
11:00 +13°C° 0.5 mm 5 mps 753 mmHg 81%
12:00 +13°C° 0.5 mm 6 mps 753 mmHg 79%
13:00 +13°C° 0.5 mm 6 mps 753 mmHg 77%
14:00 +12°C° 0.5 mm 5 mps 753 mmHg 79%
15:00 +12°C° 0.5 mm 5 mps 753 mmHg 82%
16:00 +11°C° 0.5 mm 4 mps 753 mmHg 84%
17:00 +11°C° 0.5 mm 4 mps 754 mmHg 88%
18:00 +9°C° 0.5 mm 5 mps 754 mmHg 91%
19:00 +8°C° 0.5 mm 5 mps 754 mmHg 94%
20:00 +8°C° 0.8 mm 4 mps 755 mmHg 95%
21:00 +8°C° 0.8 mm 4 mps 755 mmHg 95%
22:00 +8°C° 0.8 mm 4 mps 755 mmHg 95%
23:00 +7°C° 0.4 mm 4 mps 755 mmHg 96%

18 Julio, Sábado

Tiempo Temperatura Precipitaciones Viento Presión Humedad
00:00 +8°C° 0.4 mm 3 mps 755 mmHg 97%
01:00 +8°C° 0.4 mm 3 mps 756 mmHg 97%
02:00 +8°C° 0.1 mm 3 mps 755 mmHg 98%
03:00 +7°C° 0.1 mm 3 mps 755 mmHg 98%
04:00 +7°C° 0.1 mm 3 mps 755 mmHg 98%
05:00 +7°C° 0 mm 2 mps 756 mmHg 98%
06:00 +7°C° 0 mm 2 mps 756 mmHg 98%
07:00 +7°C° 0 mm 2 mps 756 mmHg 98%
08:00 +8°C° 0 mm 3 mps 756 mmHg 94%
09:00 +10°C° 0 mm 3 mps 756 mmHg 90%
10:00 +12°C° 0 mm 3 mps 756 mmHg 86%
11:00 +13°C° 0.1 mm 3 mps 756 mmHg 81%
12:00 +13°C° 0.1 mm 3 mps 755 mmHg 77%
13:00 +14°C° 0.1 mm 3 mps 755 mmHg 72%
14:00 +13°C° 0.4 mm 3 mps 754 mmHg 77%
15:00 +12°C° 0.4 mm 3 mps 754 mmHg 82%
16:00 +12°C° 0.4 mm 3 mps 754 mmHg 87%
17:00 +11°C° 0.2 mm 3 mps 754 mmHg 89%
18:00 +10°C° 0.2 mm 3 mps 754 mmHg 91%
19:00 +10°C° 0.2 mm 3 mps 754 mmHg 93%
20:00 +10°C° 0.2 mm 3 mps 754 mmHg 93%
21:00 +10°C° 0.2 mm 3 mps 754 mmHg 93%
22:00 +10°C° 0.2 mm 3 mps 754 mmHg 93%
23:00 +9°C° 0.1 mm 3 mps 754 mmHg 94%
Mostrar más